Eindhoven, Netherlands

5:09 PM CET on February 25, 2018 (GMT +0100)
Eindhoven Air Base

Weather History for EHEH - July, 2013

Change the Weather History Date:

Friday, July 19, 2013

  Actual Average Record
Temperature  
Mean Temperature 70 °F -  
Max Temperature 83 °F 72 °F 96 °F (2006)
Min Temperature 58 °F 54 °F 44 °F (1996)
Cooling Degree Days 6    
Growing Degree Days 20 (Base 50)    
Moisture  
Dew Point 56 °F    
Average Humidity 59    
Maximum Humidity 88    
Minimum Humidity 35    
Precipitation  
Precipitation 0.00 in - - ()
Sea Level Pressure  
Sea Level Pressure 30.22 in    
Wind  
Wind Speed 11 mph ()    
Max Wind Speed 17 mph    
Max Gust Speed 25 mph    
Visibility 6.8 miles    
Events      
Averages and records for this station are not official NWS values.
T = Trace of Precipitation, MM = Missing Value Source: Averaged Metar Reports

Daily Weather History Graph

Daily Weather History Graph

Search for Another Location

Airport or City:

Trip Planner

Search our weather history database for the weather conditions in past years. The results will help you decide how hot, cold, wet, or windy it might be!

Date:

Astronomy

Jul. 19, 2013 Rise Set
Actual Time 5:44 AM CEST 9:44 PM CEST
Civil Twilight 5:00 AM CEST 10:27 PM CEST
Nautical Twilight 3:58 AM CEST 11:29 PM CEST
Astronomical Twilight 2:17 AM CEST 1:12 AM CEST
Moon 6:28 PM CEST (7/19) 2:14 AM CEST (7/19)
Length of Visible Light 17h 27m
Length of Day
16h 00m
Waxing Gibbous, 84% of the Moon is Illuminated
Jul 19
Waxing Gibbous
Jul 22
Full
Jul 29
Last Quarter
Aug 6
New
Aug 14
First Quarter

Hourly Weather History & Observations

Time (CEST) Temp. Heat Index Dew Point Humidity Pressure Visibility Wind Dir Wind Speed Gust Speed Precip Events Conditions
12:25 AM 69.8 °F - 59.0 °F 68% 30.24 in 6.2 mi NE 12.7 mph - N/A   Unknown
12:55 AM 68.0 °F - 59.0 °F 73% 30.24 in 6.2 mi NE 12.7 mph - N/A   Unknown
1:25 AM 68.0 °F - 57.2 °F 68% 30.24 in 6.2 mi NE 12.7 mph - N/A   Unknown
1:55 AM 66.2 °F - 57.2 °F 73% 30.24 in 6.2 mi NE 10.4 mph - N/A   Unknown
2:00 AM 66 °F - 57 °F 66% 30.26 in 28 mi NE 8.9 mph - -   Partly Cloudy
2:25 AM 64.4 °F - 57.2 °F 77% 30.24 in 6.2 mi NE 9.2 mph - N/A   Unknown
2:55 AM 66.2 °F - 57.2 °F 73% 30.24 in 6.2 mi NE 9.2 mph - N/A   Unknown
3:25 AM 62.6 °F - 55.4 °F 77% 30.24 in 6.2 mi NNE 8.1 mph - N/A   Unknown
3:55 AM 62.6 °F - 55.4 °F 77% 30.24 in 6.2 mi NNE 9.2 mph - N/A   Unknown
4:25 AM 62.6 °F - 55.4 °F 77% 30.24 in 6.2 mi NE 8.1 mph - N/A   Unknown
4:55 AM 59.0 °F - 53.6 °F 82% 30.24 in 6.2 mi NNE 6.9 mph - N/A   Unknown
5:00 AM 60 °F - 55 °F 78% 30.25 in 14 mi NNE 8.9 mph - -  
5:25 AM 59.0 °F - 55.4 °F 88% 30.24 in 6.2 mi NNE 8.1 mph - N/A   Unknown
5:55 AM 59.0 °F - 53.6 °F 82% 30.24 in 6.2 mi NE 8.1 mph - N/A   Unknown
6:25 AM 60.8 °F - 53.6 °F 77% 30.24 in 6.2 mi NE 8.1 mph - N/A   Unknown
6:29 AM 60.8 °F - 53.6 °F 77% 30.24 in 6.2 mi NE 9.2 mph - N/A   Unknown
6:55 AM 60.8 °F - 55.4 °F 82% 30.24 in 6.2 mi NNE 10.4 mph - N/A   Unknown
7:25 AM 62.6 °F - 53.6 °F 72% 30.24 in 6.2 mi NNE 10.4 mph - N/A   Unknown
7:55 AM 64.4 °F - 53.6 °F 68% 30.24 in 6.2 mi NE 10.4 mph - N/A   Unknown
8:00 AM 65 °F - 54 °F 59% 30.26 in 16 mi NE 8.9 mph - -   Partly Cloudy
8:25 AM 66.2 °F - 55.4 °F 68% 30.24 in 6.2 mi ENE 9.2 mph - N/A   Unknown
8:55 AM 68.0 °F - 55.4 °F 64% 30.24 in 6.2 mi NE 10.4 mph - N/A   Unknown
9:25 AM 69.8 °F - 57.2 °F 64% 30.24 in 6.2 mi ENE 10.4 mph - N/A   Unknown
9:55 AM 69.8 °F - 57.2 °F 64% 30.24 in 6.2 mi NE 12.7 mph - N/A   Unknown
10:25 AM 71.6 °F - 57.2 °F 60% 30.24 in 6.2 mi ENE 11.5 mph - N/A   Unknown
10:55 AM 73.4 °F - 57.2 °F 57% 30.24 in 6.2 mi ENE 11.5 mph - N/A   Partly Cloudy
11:00 AM 74 °F - 57 °F 46% 30.26 in 19 mi ENE 11.2 mph - -   Scattered Clouds
11:25 AM 75.2 °F - 57.2 °F 53% 30.24 in 6.2 mi ENE 12.7 mph - N/A   Unknown
11:55 AM 75.2 °F - 57.2 °F 53% 30.24 in 6.2 mi NE 11.5 mph - N/A   Unknown
12:25 PM 78.8 °F - 57.2 °F 47% 30.24 in 6.2 mi NE 12.7 mph - N/A   Unknown
12:55 PM 78.8 °F - 57.2 °F 47% 30.24 in 6.2 mi NE 12.7 mph 25.3 mph N/A   Partly Cloudy
1:25 PM 78.8 °F - 59.0 °F 51% 30.24 in 6.2 mi ENE 15.0 mph - N/A   Partly Cloudy
1:55 PM 80.6 °F 80.8 °F 57.2 °F 45% 30.24 in 6.2 mi NE 15.0 mph - N/A   Mostly Cloudy
2:00 PM 79 °F - 57 °F 37% 30.24 in 28 mi NNE 13.4 mph - -   Partly Cloudy
2:25 PM 80.6 °F 80.8 °F 57.2 °F 45% 30.21 in 6.2 mi NNE 15.0 mph - N/A   Partly Cloudy
2:55 PM 80.6 °F 80.8 °F 57.2 °F 45% 30.21 in 6.2 mi NE 13.8 mph - N/A   Partly Cloudy
3:25 PM 78.8 °F - 55.4 °F 44% 30.21 in 6.2 mi ENE 15.0 mph - N/A   Mostly Cloudy
3:55 PM 82.4 °F 82.0 °F 57.2 °F 42% 30.21 in 6.2 mi East 13.8 mph - N/A   Partly Cloudy
4:15 PM 84.2 °F 83.8 °F 59.0 °F 42% 30.21 in 6.2 mi NNE 15.0 mph - N/A   Unknown
4:25 PM 80.6 °F 80.8 °F 57.2 °F 45% 30.21 in 6.2 mi NNE 17.3 mph - N/A   Scattered Clouds
4:55 PM 80.6 °F 81.1 °F 59.0 °F 48% 30.21 in 6.2 mi NE 16.1 mph - N/A   Unknown
5:00 PM 81 °F - 58 °F 35% 30.22 in 25 mi NE 15.7 mph - -   Scattered Clouds
5:25 PM 80.6 °F 81.1 °F 59.0 °F 48% 30.18 in 6.2 mi NE 12.7 mph - N/A   Partly Cloudy
5:55 PM 78.8 °F - 57.2 °F 47% 30.18 in 6.2 mi NE 15.0 mph - N/A   Overcast
6:25 PM 78.8 °F - 57.2 °F 47% 30.18 in 6.2 mi NNE 12.7 mph - N/A   Mostly Cloudy
6:55 PM 78.8 °F - 55.4 °F 44% 30.18 in 6.2 mi NNE 17.3 mph - N/A   Mostly Cloudy
7:25 PM 78.8 °F - 55.4 °F 44% 30.18 in 6.2 mi NNE 13.8 mph - N/A   Mostly Cloudy
7:55 PM 77.0 °F - 55.4 °F 47% 30.18 in 6.2 mi NNE 16.1 mph - N/A   Partly Cloudy
8:00 PM 77 °F - 55 °F 35% 30.19 in 25 mi NNE 15.7 mph - -   Partly Cloudy
8:25 PM 77.0 °F - 55.4 °F 47% 30.18 in 6.2 mi North 15.0 mph - N/A   Unknown
8:55 PM 75.2 °F - 55.4 °F 50% 30.18 in 6.2 mi North 13.8 mph - N/A   Unknown
9:25 PM 73.4 °F - 55.4 °F 53% 30.18 in 6.2 mi NNE 12.7 mph - N/A   Unknown
9:55 PM 71.6 °F - 55.4 °F 57% 30.18 in 6.2 mi NNE 13.8 mph - N/A   Unknown
10:25 PM 69.8 °F - 55.4 °F 60% 30.18 in 6.2 mi NNE 9.2 mph - N/A   Unknown
10:55 PM 68.0 °F - 55.4 °F 64% 30.21 in 6.2 mi NNE 11.5 mph - N/A   Unknown
11:00 PM 68 °F - 55 °F 54% 30.22 in 28 mi NNE 11.2 mph - -  
11:05 PM 68.0 °F - 55.4 °F 64% 30.21 in 6.2 mi NNE 10.4 mph - N/A   Unknown
11:25 PM 66.2 °F - 55.4 °F 68% 30.21 in 6.2 mi NNE 6.9 mph - N/A   Unknown
11:55 PM 64.4 °F - 55.4 °F 73% 30.21 in 6.2 mi NNE 9.2 mph - N/A   Unknown